遥感四十三号02组-E (YAOGAN-43 02E)

导读 | 星芒AI

YAOGAN-43 02E 是中国高分辨率遥感卫星“遥感四十三号”星座的一部分,主要用于科学实验、国土资源普查、环境监测及灾害预警等领域。该卫星由中国航天科技集团研制,于2023年发射,具备高精度成像能力和多光谱观测功能,为国家空间信息应用提供重要数据支持。

基本信息
目录编号:
60949
目录名称:
YAOGAN-43 02E
国际标识:
2024-156E
轨道中心:
EARTH
卫星名称:
遥感四十三号02组-E (YAOGAN-43 02E)
卫星全名:
遥感四十三号02组-E (YAOGAN-43 02E)
卫星状态:
在轨 (已飞行421 天)
发射日期:
2024-09-03 UTC
国别 :
中国 (CN)
星等 :
--
轨道信息
数据来源 国际轨道数据
星历时间: 2025-10-28T12:48:20+0800
1天前
查看轨道信息
半长轴: 6873.106km
偏心率: 0.000509
轨道倾角: 34.995°
近地点辐角 185.277°
升交点赤经 217.149°
平近点角 174.789°
近地点: 491.472km
远地点: 498.47km
周期: 94.512分钟
每日圈数: 15.236081
详细信息
运营商:
中国空间技术研究院
运营商所在国:
中国
制造商(研发单位):
中国空间技术研究院
制造商所在国:
中国
使用方式:
暂无
卫星简介
遥感四十三号卫星组分别由航天科技集团五院和八院等抓总研制,主要用于开展低轨星座系统新技术试验。
2D轨道图
3D轨道图
轨道高度分析图
轨道倾角分析图
轨道综合分析图
查看轨道综合分析图